sat.trackr.live / text

‹ back to catalog

STARLINK-35961

NORAD 66530 · 2025-265Q

PAYLOAD ACTIVE UNKNOWN

§ Identity

Operator
Country
US
Launch date
2025-11-19
Launch site
AFETR
Launch vehicle
Mass (kg)
RCS (m²)

Purposes: comms

External: N2YO · Heavens-Above · Gunter

§ Orbital elements

Epoch: 2026-05-24T21:03:00.288288Z

Period
94.27 min
Inclination
42.9981°
Eccentricity
0.0000969
Mean motion
15.27606502 rev/d
Perigee alt
482.3 km
Apogee alt
483.6 km
Semi-major
6,861.1 km
B*
4.9539e-4
RAAN
207.8147°
Arg perigee
293.5322°
Mean anomaly
66.5427°
Rev number
2,876

§ Raw data

STARLINK-359611 66530U 25265Q   26144.87708667  .00013406  00000+0  49539-3 0  99922 66530  42.9981 207.8147 0000969 293.5322  66.5427 15.27606502 28761

JSON: /api/v1/satellites/66530 · /tle

For live sub-satellite position, see the globe view (requires WebGL).

§ Visibility from observer

Set your observer location to see the next 7 days of passes ≥ 10°. The values pass through the URL so the page stays shareable.

No JS? Fill the form by hand. The geolocation button needs JavaScript.